Hobart, OK

6:06 AM CDT on September 30, 2016 (GMT -0500)
Hobart Municipal

Weather History for KHBR - December, 2012

Change the Weather History Date:

Wednesday, December 5, 2012

  Actual Average Record
Temperature  
Mean Temperature 46 °F -  
Max Temperature 63 °F 51 °F 70 °F (2001)
Min Temperature 28 °F 31 °F 17 °F (2013)
Degree Days  
Heating Degree Days 20    
Moisture  
Dew Point 25 °F    
Average Humidity 44    
Maximum Humidity 72    
Minimum Humidity 20    
Precipitation  
Precipitation 0.00 in - - ()
Sea Level Pressure  
Sea Level Pressure 30.18 in    
Wind  
Wind Speed 5 mph (SSE)    
Max Wind Speed 18 mph    
Max Gust Speed -    
Visibility 10 miles    
Events      
Averages and records for this station are not official NWS values.
T = Trace of Precipitation, MM = Missing Value Source: NWS Daily Summary

Daily Weather History Graph

Daily Weather History Graph

Search for Another Location

Airport or City:

Trip Planner

Search our weather history database for the weather conditions in past years. The results will help you decide how hot, cold, wet, or windy it might be!

Date:

Astronomy

Dec. 05, 2012 Rise Set
Actual Time 7:29 AM CST 5:24 PM CST
Civil Twilight 7:01 AM CST 5:52 PM CST
Nautical Twilight 6:30 AM CST 6:23 PM CST
Astronomical Twilight 5:59 AM CST 6:54 PM CST
Moon No Moon Rise 12:04 PM CST (12/5)
Length of Visible Light 10h 50m
Length of Day
9h 54m
Waning Gibbous, 59% of the Moon is Illuminated
Dec 5
Waning Gibbous
Dec 6
Last Quarter
Dec 13
New
Dec 19
First Quarter
Dec 28
Full

Hourly Weather History & Observations

Time (CST) Temp. Windchill Dew Point Humidity Pressure Visibility Wind Dir Wind Speed Gust Speed Precip Events Conditions
12:53 AM 37.9 °F - 21.0 °F 51% 30.33 in 10.0 mi Calm Calm - N/A   Clear
1:53 AM 34.0 °F 28.8 °F 21.0 °F 59% 30.32 in 10.0 mi East 5.8 mph - N/A   Clear
2:53 AM 37.9 °F 32.7 °F 21.9 °F 53% 30.32 in 10.0 mi East 6.9 mph - N/A   Clear
3:53 AM 37.0 °F 32.4 °F 21.0 °F 52% 30.31 in 10.0 mi ENE 5.8 mph - N/A   Clear
4:53 AM 34.0 °F - 21.9 °F 61% 30.31 in 10.0 mi Calm Calm - N/A   Clear
5:53 AM 36.0 °F - 21.0 °F 55% 30.31 in 10.0 mi Calm Calm - N/A   Clear
6:53 AM 28.9 °F - 21.0 °F 72% 30.33 in 8.0 mi Calm Calm - N/A   Clear
8:53 AM 45.0 °F - 24.1 °F 44% 30.31 in 10.0 mi Calm Calm - N/A   Clear
9:53 AM 51.1 °F - 28.0 °F 41% 30.31 in 10.0 mi WSW 4.6 mph - N/A   Clear
10:53 AM 55.9 °F - 30.0 °F 37% 30.28 in 10.0 mi South 8.1 mph - N/A   Clear
11:53 AM 60.1 °F - 28.0 °F 30% 30.24 in 10.0 mi South 8.1 mph - N/A   Clear
12:53 PM 61.0 °F - 26.1 °F 26% 30.19 in 10.0 mi South 10.4 mph - N/A   Clear
1:53 PM 61.0 °F - 26.1 °F 26% 30.15 in 10.0 mi South 9.2 mph - N/A   Clear
2:53 PM 62.1 °F - 24.1 °F 23% 30.10 in 10.0 mi SSE 8.1 mph - N/A   Clear
3:53 PM 63.0 °F - 21.0 °F 20% 30.08 in 10.0 mi South 11.5 mph - N/A   Clear
4:53 PM 57.0 °F - 23.0 °F 27% 30.07 in 10.0 mi South 10.4 mph - N/A   Clear
5:53 PM 51.1 °F - 23.0 °F 33% 30.07 in 10.0 mi SSE 10.4 mph - N/A   Clear
6:53 PM 50.0 °F - 25.0 °F 38% 30.08 in 10.0 mi SSE 10.4 mph - N/A   Clear
7:53 PM 48.9 °F - 25.0 °F 39% 30.06 in 10.0 mi SSE 10.4 mph - N/A   Clear
8:53 PM 46.0 °F 41.9 °F 26.1 °F 46% 30.04 in 10.0 mi SSE 8.1 mph - N/A   Clear
9:53 PM 45.0 °F 39.3 °F 28.0 °F 52% 30.01 in 10.0 mi SSE 11.5 mph - N/A   Clear
10:53 PM 48.9 °F - 35.1 °F 59% 29.99 in 10.0 mi South 13.8 mph - N/A   Clear
11:53 PM 48.9 °F - 37.9 °F 66% 29.96 in 10.0 mi South 18.4 mph - N/A   Clear